owner,sensor,date,latitude,longitude,vertical_datum,sea_water_temperature,qcFlag 
TCOON,ioos:station:TCOON:072:1,2014-09-01T02:30:00Z,27.8392,-97.4440,0.0,28.9,2 
TCOON,ioos:station:TCOON:072:1,2014-09-01T03:30:00Z,27.8392,-97.4440,0.0,28.9,2 
TCOON,ioos:station:TCOON:072:1,2014-09-01T04:30:00Z,27.8392,-97.4440,0.0,28.9,2 
TCOON,ioos:station:TCOON:072:1,2014-09-01T06:00:00Z,27.8392,-97.4440,0.0,28.8,2 
TCOON,ioos:station:TCOON:072:1,2014-09-01T06:30:00Z,27.8392,-97.4440,0.0,28.8,2 
TCOON,ioos:station:TCOON:072:1,2014-09-01T07:30:00Z,27.8392,-97.4440,0.0,28.7,2 
TCOON,ioos:station:TCOON:072:1,2014-09-01T08:30:00Z,27.8392,-97.4440,0.0,28.7,2 
TCOON,ioos:station:TCOON:072:1,2014-09-01T09:30:00Z,27.8392,-97.4440,0.0,28.7,2 
TCOON,ioos:station:TCOON:072:1,2014-09-01T10:30:00Z,27.8392,-97.4440,0.0,28.6,2 
TCOON,ioos:station:TCOON:072:1,2014-09-01T11:30:00Z,27.8392,-97.4440,0.0,28.5,2 
TCOON,ioos:station:TCOON:072:1,2014-09-01T12:30:00Z,27.8392,-97.4440,0.0,28.5,2 
TCOON,ioos:station:TCOON:072:1,2014-09-01T13:30:00Z,27.8392,-97.4440,0.0,28.5,2 
TCOON,ioos:station:TCOON:072:1,2014-09-01T14:30:00Z,27.8392,-97.4440,0.0,28.5,2 
TCOON,ioos:station:TCOON:072:1,2014-09-01T16:00:00Z,27.8392,-97.4440,0.0,28.8,2 
TCOON,ioos:station:TCOON:072:1,2014-09-01T16:30:00Z,27.8392,-97.4440,0.0,29.0,2 
TCOON,ioos:station:TCOON:072:1,2014-09-01T17:30:00Z,27.8392,-97.4440,0.0,29.2,2 
TCOON,ioos:station:TCOON:072:1,2014-09-01T19:00:00Z,27.8392,-97.4440,0.0,29.7,2 
TCOON,ioos:station:TCOON:072:1,2014-09-01T19:30:00Z,27.8392,-97.4440,0.0,29.7,2 
TCOON,ioos:station:TCOON:072:1,2014-09-01T20:30:00Z,27.8392,-97.4440,0.0,30.1,2 
TCOON,ioos:station:TCOON:072:1,2014-09-01T21:30:00Z,27.8392,-97.4440,0.0,30.1,2 
TCOON,ioos:station:TCOON:072:1,2014-09-01T22:30:00Z,27.8392,-97.4440,0.0,30.1,2 
TCOON,ioos:station:TCOON:072:1,2014-09-01T23:30:00Z,27.8392,-97.4440,0.0,29.9,2 
TCOON,ioos:station:TCOON:072:1,2014-09-02T00:30:00Z,27.8392,-97.4440,0.0,29.8,2 
TCOON,ioos:station:TCOON:072:1,2014-09-02T01:30:00Z,27.8392,-97.4440,0.0,29.8,2 
TCOON,ioos:station:TCOON:072:1,2014-09-02T02:30:00Z,27.8392,-97.4440,0.0,29.7,2 
TCOON,ioos:station:TCOON:072:1,2014-09-02T03:30:00Z,27.8392,-97.4440,0.0,29.6,2 
TCOON,ioos:station:TCOON:072:1,2014-09-02T04:30:00Z,27.8392,-97.4440,0.0,29.4,2 
TCOON,ioos:station:TCOON:072:1,2014-09-02T05:30:00Z,27.8392,-97.4440,0.0,29.4,2 
TCOON,ioos:station:TCOON:072:1,2014-09-02T07:30:00Z,27.8392,-97.4440,0.0,29.2,2 
TCOON,ioos:station:TCOON:072:1,2014-09-02T08:30:00Z,27.8392,-97.4440,0.0,29.3,2 
TCOON,ioos:station:TCOON:072:1,2014-09-02T09:30:00Z,27.8392,-97.4440,0.0,29.3,2 
TCOON,ioos:station:TCOON:072:1,2014-09-02T10:30:00Z,27.8392,-97.4440,0.0,29.2,2 
TCOON,ioos:station:TCOON:072:1,2014-09-02T12:00:00Z,27.8392,-97.4440,0.0,29.1,2 
TCOON,ioos:station:TCOON:072:1,2014-09-02T12:30:00Z,27.8392,-97.4440,0.0,29.2,2 
TCOON,ioos:station:TCOON:072:1,2014-09-02T14:00:00Z,27.8392,-97.4440,0.0,29.0,2 
TCOON,ioos:station:TCOON:072:1,2014-09-02T15:00:00Z,27.8392,-97.4440,0.0,29.0,2 
TCOON,ioos:station:TCOON:072:1,2014-09-02T15:30:00Z,27.8392,-97.4440,0.0,29.1,2 
TCOON,ioos:station:TCOON:072:1,2014-09-02T16:30:00Z,27.8392,-97.4440,0.0,29.3,2 
TCOON,ioos:station:TCOON:072:1,2014-09-02T17:30:00Z,27.8392,-97.4440,0.0,29.6,2 
TCOON,ioos:station:TCOON:072:1,2014-09-02T18:30:00Z,27.8392,-97.4440,0.0,29.8,2 
TCOON,ioos:station:TCOON:072:1,2014-09-02T19:30:00Z,27.8392,-97.4440,0.0,30.1,2 
TCOON,ioos:station:TCOON:072:1,2014-09-02T20:30:00Z,27.8392,-97.4440,0.0,30.3,2 
TCOON,ioos:station:TCOON:072:1,2014-09-02T22:00:00Z,27.8392,-97.4440,0.0,30.4,2 
TCOON,ioos:station:TCOON:072:1,2014-09-02T23:00:00Z,27.8392,-97.4440,0.0,30.3,2 
TCOON,ioos:station:TCOON:072:1,2014-09-03T00:30:00Z,27.8392,-97.4440,0.0,30.1,2 
TCOON,ioos:station:TCOON:072:1,2014-09-03T01:30:00Z,27.8392,-97.4440,0.0,29.9,2 
TCOON,ioos:station:TCOON:072:1,2014-09-03T02:30:00Z,27.8392,-97.4440,0.0,29.7,2 
TCOON,ioos:station:TCOON:072:1,2014-09-03T03:30:00Z,27.8392,-97.4440,0.0,29.6,2 
TCOON,ioos:station:TCOON:072:1,2014-09-03T04:30:00Z,27.8392,-97.4440,0.0,29.4,2 
TCOON,ioos:station:TCOON:072:1,2014-09-03T05:30:00Z,27.8392,-97.4440,0.0,29.3,2 
TCOON,ioos:station:TCOON:072:1,2014-09-03T06:30:00Z,27.8392,-97.4440,0.0,29.2,2 
TCOON,ioos:station:TCOON:072:1,2014-09-03T07:30:00Z,27.8392,-97.4440,0.0,29.1,2 
TCOON,ioos:station:TCOON:072:1,2014-09-03T08:30:00Z,27.8392,-97.4440,0.0,29.0,2 
TCOON,ioos:station:TCOON:072:1,2014-09-03T09:30:00Z,27.8392,-97.4440,0.0,28.9,2 
TCOON,ioos:station:TCOON:072:1,2014-09-03T11:00:00Z,27.8392,-97.4440,0.0,28.9,2 
TCOON,ioos:station:TCOON:072:1,2014-09-03T12:30:00Z,27.8392,-97.4440,0.0,28.9,2 
TCOON,ioos:station:TCOON:072:1,2014-09-03T14:00:00Z,27.8392,-97.4440,0.0,28.8,2 
TCOON,ioos:station:TCOON:072:1,2014-09-03T14:30:00Z,27.8392,-97.4440,0.0,29.0,2 
TCOON,ioos:station:TCOON:072:1,2014-09-03T15:30:00Z,27.8392,-97.4440,0.0,29.1,2 
TCOON,ioos:station:TCOON:072:1,2014-09-03T16:30:00Z,27.8392,-97.4440,0.0,29.3,2 
TCOON,ioos:station:TCOON:072:1,2014-09-03T17:30:00Z,27.8392,-97.4440,0.0,29.6,2 
TCOON,ioos:station:TCOON:072:1,2014-09-03T18:30:00Z,27.8392,-97.4440,0.0,30.0,2 
TCOON,ioos:station:TCOON:072:1,2014-09-03T19:30:00Z,27.8392,-97.4440,0.0,30.1,2 
TCOON,ioos:station:TCOON:072:1,2014-09-03T20:30:00Z,27.8392,-97.4440,0.0,29.9,2 
TCOON,ioos:station:TCOON:072:1,2014-09-03T21:30:00Z,27.8392,-97.4440,0.0,29.7,2 
TCOON,ioos:station:TCOON:072:1,2014-09-03T22:30:00Z,27.8392,-97.4440,0.0,29.6,2 
TCOON,ioos:station:TCOON:072:1,2014-09-03T23:30:00Z,27.8392,-97.4440,0.0,29.6,2 
TCOON,ioos:station:TCOON:072:1,2014-09-04T00:30:00Z,27.8392,-97.4440,0.0,29.5,2 
TCOON,ioos:station:TCOON:072:1,2014-09-04T01:30:00Z,27.8392,-97.4440,0.0,29.4,2 
TCOON,ioos:station:TCOON:072:1,2014-09-04T02:30:00Z,27.8392,-97.4440,0.0,29.4,2 
TCOON,ioos:station:TCOON:072:1,2014-09-04T03:30:00Z,27.8392,-97.4440,0.0,29.3,2 
TCOON,ioos:station:TCOON:072:1,2014-09-04T04:30:00Z,27.8392,-97.4440,0.0,29.2,2 
TCOON,ioos:station:TCOON:072:1,2014-09-04T05:30:00Z,27.8392,-97.4440,0.0,29.1,2 
TCOON,ioos:station:TCOON:072:1,2014-09-04T06:30:00Z,27.8392,-97.4440,0.0,29.1,2 
TCOON,ioos:station:TCOON:072:1,2014-09-04T07:30:00Z,27.8392,-97.4440,0.0,29.0,2 
TCOON,ioos:station:TCOON:072:1,2014-09-04T08:30:00Z,27.8392,-97.4440,0.0,29.0,2 
TCOON,ioos:station:TCOON:072:1,2014-09-04T09:30:00Z,27.8392,-97.4440,0.0,28.9,2 
TCOON,ioos:station:TCOON:072:1,2014-09-04T10:30:00Z,27.8392,-97.4440,0.0,28.9,2 
TCOON,ioos:station:TCOON:072:1,2014-09-04T11:30:00Z,27.8392,-97.4440,0.0,28.8,2 
TCOON,ioos:station:TCOON:072:1,2014-09-04T12:30:00Z,27.8392,-97.4440,0.0,28.8,2 
TCOON,ioos:station:TCOON:072:1,2014-09-04T13:30:00Z,27.8392,-97.4440,0.0,28.8,2 
TCOON,ioos:station:TCOON:072:1,2014-09-04T14:30:00Z,27.8392,-97.4440,0.0,28.8,2 
TCOON,ioos:station:TCOON:072:1,2014-09-04T15:30:00Z,27.8392,-97.4440,0.0,28.9,2 
TCOON,ioos:station:TCOON:072:1,2014-09-04T16:30:00Z,27.8392,-97.4440,0.0,29.1,2 
TCOON,ioos:station:TCOON:072:1,2014-09-04T17:30:00Z,27.8392,-97.4440,0.0,29.2,2 
TCOON,ioos:station:TCOON:072:1,2014-09-04T18:30:00Z,27.8392,-97.4440,0.0,29.4,2 
TCOON,ioos:station:TCOON:072:1,2014-09-04T19:30:00Z,27.8392,-97.4440,0.0,29.6,2 
TCOON,ioos:station:TCOON:072:1,2014-09-04T20:30:00Z,27.8392,-97.4440,0.0,29.7,2 
TCOON,ioos:station:TCOON:072:1,2014-09-04T21:30:00Z,27.8392,-97.4440,0.0,29.7,2 
TCOON,ioos:station:TCOON:072:1,2014-09-04T22:30:00Z,27.8392,-97.4440,0.0,29.7,2 
TCOON,ioos:station:TCOON:072:1,2014-09-04T23:30:00Z,27.8392,-97.4440,0.0,29.6,2 
TCOON,ioos:station:TCOON:072:1,2014-09-05T00:30:00Z,27.8392,-97.4440,0.0,29.5,2 
TCOON,ioos:station:TCOON:072:1,2014-09-05T01:30:00Z,27.8392,-97.4440,0.0,29.4,2 
TCOON,ioos:station:TCOON:072:1,2014-09-05T02:30:00Z,27.8392,-97.4440,0.0,29.3,2 
TCOON,ioos:station:TCOON:072:1,2014-09-05T03:30:00Z,27.8392,-97.4440,0.0,29.1,2 
TCOON,ioos:station:TCOON:072:1,2014-09-05T04:30:00Z,27.8392,-97.4440,0.0,29.1,2 
TCOON,ioos:station:TCOON:072:1,2014-09-05T05:30:00Z,27.8392,-97.4440,0.0,29.0,2 
TCOON,ioos:station:TCOON:072:1,2014-09-05T07:00:00Z,27.8392,-97.4440,0.0,28.8,2 
TCOON,ioos:station:TCOON:072:1,2014-09-05T07:30:00Z,27.8392,-97.4440,0.0,28.8,2 
TCOON,ioos:station:TCOON:072:1,2014-09-05T08:30:00Z,27.8392,-97.4440,0.0,28.7,2 
TCOON,ioos:station:TCOON:072:1,2014-09-05T11:30:00Z,27.8392,-97.4440,0.0,28.6,2 
TCOON,ioos:station:TCOON:072:1,2014-09-05T12:30:00Z,27.8392,-97.4440,0.0,28.6,2 
TCOON,ioos:station:TCOON:072:1,2014-09-05T13:30:00Z,27.8392,-97.4440,0.0,28.6,2 
TCOON,ioos:station:TCOON:072:1,2014-09-05T14:30:00Z,27.8392,-97.4440,0.0,28.7,2 
TCOON,ioos:station:TCOON:072:1,2014-09-05T15:30:00Z,27.8392,-97.4440,0.0,28.9,2 
TCOON,ioos:station:TCOON:072:1,2014-09-05T16:30:00Z,27.8392,-97.4440,0.0,29.1,2 
TCOON,ioos:station:TCOON:072:1,2014-09-05T17:30:00Z,27.8392,-97.4440,0.0,29.3,2 
TCOON,ioos:station:TCOON:072:1,2014-09-05T18:30:00Z,27.8392,-97.4440,0.0,29.6,2 
TCOON,ioos:station:TCOON:072:1,2014-09-05T19:30:00Z,27.8392,-97.4440,0.0,29.6,2 
TCOON,ioos:station:TCOON:072:1,2014-09-05T20:30:00Z,27.8392,-97.4440,0.0,29.8,2 
TCOON,ioos:station:TCOON:072:1,2014-09-05T21:30:00Z,27.8392,-97.4440,0.0,30.0,2 
TCOON,ioos:station:TCOON:072:1,2014-09-05T22:30:00Z,27.8392,-97.4440,0.0,30.0,2 
TCOON,ioos:station:TCOON:072:1,2014-09-05T23:30:00Z,27.8392,-97.4440,0.0,29.7,2 
TCOON,ioos:station:TCOON:072:1,2014-09-06T00:30:00Z,27.8392,-97.4440,0.0,29.6,2 
TCOON,ioos:station:TCOON:072:1,2014-09-06T01:30:00Z,27.8392,-97.4440,0.0,29.4,2 
TCOON,ioos:station:TCOON:072:1,2014-09-06T02:30:00Z,27.8392,-97.4440,0.0,29.3,2 
TCOON,ioos:station:TCOON:072:1,2014-09-06T03:30:00Z,27.8392,-97.4440,0.0,29.2,2 
TCOON,ioos:station:TCOON:072:1,2014-09-06T04:30:00Z,27.8392,-97.4440,0.0,29.1,2 
TCOON,ioos:station:TCOON:072:1,2014-09-06T05:30:00Z,27.8392,-97.4440,0.0,29.0,2 
TCOON,ioos:station:TCOON:072:1,2014-09-06T06:30:00Z,27.8392,-97.4440,0.0,29.0,2 
TCOON,ioos:station:TCOON:072:1,2014-09-06T08:00:00Z,27.8392,-97.4440,0.0,28.9,2 
TCOON,ioos:station:TCOON:072:1,2014-09-06T08:30:00Z,27.8392,-97.4440,0.0,28.9,2 
TCOON,ioos:station:TCOON:072:1,2014-09-06T09:30:00Z,27.8392,-97.4440,0.0,28.8,2 
TCOON,ioos:station:TCOON:072:1,2014-09-06T10:30:00Z,27.8392,-97.4440,0.0,28.8,2 
TCOON,ioos:station:TCOON:072:1,2014-09-06T11:30:00Z,27.8392,-97.4440,0.0,28.7,2 
TCOON,ioos:station:TCOON:072:1,2014-09-06T12:30:00Z,27.8392,-97.4440,0.0,28.6,2 
TCOON,ioos:station:TCOON:072:1,2014-09-06T13:30:00Z,27.8392,-97.4440,0.0,28.6,2 
TCOON,ioos:station:TCOON:072:1,2014-09-06T14:30:00Z,27.8392,-97.4440,0.0,28.7,2 
TCOON,ioos:station:TCOON:072:1,2014-09-06T15:30:00Z,27.8392,-97.4440,0.0,28.9,2 
TCOON,ioos:station:TCOON:072:1,2014-09-06T16:30:00Z,27.8392,-97.4440,0.0,29.0,2 
TCOON,ioos:station:TCOON:072:1,2014-09-06T17:30:00Z,27.8392,-97.4440,0.0,29.1,2 
TCOON,ioos:station:TCOON:072:1,2014-09-06T18:30:00Z,27.8392,-97.4440,0.0,29.2,2 
TCOON,ioos:station:TCOON:072:1,2014-09-06T19:30:00Z,27.8392,-97.4440,0.0,29.6,2 
TCOON,ioos:station:TCOON:072:1,2014-09-06T20:30:00Z,27.8392,-97.4440,0.0,29.8,2 
TCOON,ioos:station:TCOON:072:1,2014-09-06T21:30:00Z,27.8392,-97.4440,0.0,29.9,2 
TCOON,ioos:station:TCOON:072:1,2014-09-06T22:30:00Z,27.8392,-97.4440,0.0,30.0,2 
TCOON,ioos:station:TCOON:072:1,2014-09-06T23:30:00Z,27.8392,-97.4440,0.0,29.9,2 
TCOON,ioos:station:TCOON:072:1,2014-09-07T00:30:00Z,27.8392,-97.4440,0.0,29.9,2 
TCOON,ioos:station:TCOON:072:1,2014-09-07T02:00:00Z,27.8392,-97.4440,0.0,29.8,2 
TCOON,ioos:station:TCOON:072:1,2014-09-07T02:30:00Z,27.8392,-97.4440,0.0,29.7,2 
TCOON,ioos:station:TCOON:072:1,2014-09-07T03:30:00Z,27.8392,-97.4440,0.0,29.5,2 
TCOON,ioos:station:TCOON:072:1,2014-09-07T04:30:00Z,27.8392,-97.4440,0.0,29.4,2 
TCOON,ioos:station:TCOON:072:1,2014-09-07T05:30:00Z,27.8392,-97.4440,0.0,29.3,2 
TCOON,ioos:station:TCOON:072:1,2014-09-07T06:30:00Z,27.8392,-97.4440,0.0,29.2,2 
TCOON,ioos:station:TCOON:072:1,2014-09-07T07:30:00Z,27.8392,-97.4440,0.0,29.2,2 
TCOON,ioos:station:TCOON:072:1,2014-09-07T08:30:00Z,27.8392,-97.4440,0.0,29.1,2 
TCOON,ioos:station:TCOON:072:1,2014-09-07T09:30:00Z,27.8392,-97.4440,0.0,29.0,2 
TCOON,ioos:station:TCOON:072:1,2014-09-07T10:30:00Z,27.8392,-97.4440,0.0,29.0,2 
TCOON,ioos:station:TCOON:072:1,2014-09-07T11:30:00Z,27.8392,-97.4440,0.0,28.9,2 
TCOON,ioos:station:TCOON:072:1,2014-09-07T12:30:00Z,27.8392,-97.4440,0.0,28.9,2 
TCOON,ioos:station:TCOON:072:1,2014-09-07T13:30:00Z,27.8392,-97.4440,0.0,28.9,2 
TCOON,ioos:station:TCOON:072:1,2014-09-07T14:30:00Z,27.8392,-97.4440,0.0,28.9,2 
TCOON,ioos:station:TCOON:072:1,2014-09-07T15:30:00Z,27.8392,-97.4440,0.0,29.0,2 
TCOON,ioos:station:TCOON:072:1,2014-09-07T16:30:00Z,27.8392,-97.4440,0.0,29.0,2 
TCOON,ioos:station:TCOON:072:1,2014-09-07T17:30:00Z,27.8392,-97.4440,0.0,29.1,2 
TCOON,ioos:station:TCOON:072:1,2014-09-07T18:30:00Z,27.8392,-97.4440,0.0,29.1,2 
TCOON,ioos:station:TCOON:072:1,2014-09-07T19:30:00Z,27.8392,-97.4440,0.0,29.3,2 
TCOON,ioos:station:TCOON:072:1,2014-09-07T20:30:00Z,27.8392,-97.4440,0.0,29.5,2 
TCOON,ioos:station:TCOON:072:1,2014-09-07T21:30:00Z,27.8392,-97.4440,0.0,29.5,2 
TCOON,ioos:station:TCOON:072:1,2014-09-08T00:00:00Z,27.8392,-97.4440,0.0,29.5,2 
TCOON,ioos:station:TCOON:072:1,2014-09-08T00:30:00Z,27.8392,-97.4440,0.0,29.5,2 
TCOON,ioos:station:TCOON:072:1,2014-09-08T01:30:00Z,27.8392,-97.4440,0.0,29.4,2 
TCOON,ioos:station:TCOON:072:1,2014-09-08T02:30:00Z,27.8392,-97.4440,0.0,29.4,2 
TCOON,ioos:station:TCOON:072:1,2014-09-08T03:30:00Z,27.8392,-97.4440,0.0,29.3,2 
TCOON,ioos:station:TCOON:072:1,2014-09-08T05:00:00Z,27.8392,-97.4440,0.0,29.2,2 
TCOON,ioos:station:TCOON:072:1,2014-09-08T05:30:00Z,27.8392,-97.4440,0.0,29.1,2 
TCOON,ioos:station:TCOON:072:1,2014-09-08T07:00:00Z,27.8392,-97.4440,0.0,29.0,2 
TCOON,ioos:station:TCOON:072:1,2014-09-08T07:30:00Z,27.8392,-97.4440,0.0,28.9,2 
TCOON,ioos:station:TCOON:072:1,2014-09-08T08:30:00Z,27.8392,-97.4440,0.0,29.0,2 
TCOON,ioos:station:TCOON:072:1,2014-09-08T09:30:00Z,27.8392,-97.4440,0.0,28.8,2 
TCOON,ioos:station:TCOON:072:1,2014-09-08T10:30:00Z,27.8392,-97.4440,0.0,28.8,2 
TCOON,ioos:station:TCOON:072:1,2014-09-08T11:30:00Z,27.8392,-97.4440,0.0,28.7,2 
TCOON,ioos:station:TCOON:072:1,2014-09-08T12:30:00Z,27.8392,-97.4440,0.0,28.7,2 
TCOON,ioos:station:TCOON:072:1,2014-09-08T13:30:00Z,27.8392,-97.4440,0.0,28.7,2 
TCOON,ioos:station:TCOON:072:1,2014-09-08T14:30:00Z,27.8392,-97.4440,0.0,28.7,2 
TCOON,ioos:station:TCOON:072:1,2014-09-08T15:30:00Z,27.8392,-97.4440,0.0,28.9,2 
TCOON,ioos:station:TCOON:072:1,2014-09-08T16:30:00Z,27.8392,-97.4440,0.0,29.0,2 
TCOON,ioos:station:TCOON:072:1,2014-09-08T17:30:00Z,27.8392,-97.4440,0.0,29.1,2 
TCOON,ioos:station:TCOON:072:1,2014-09-08T18:30:00Z,27.8392,-97.4440,0.0,30.2,2 
TCOON,ioos:station:TCOON:072:1,2014-09-08T19:30:00Z,27.8392,-97.4440,0.0,30.2,2 
TCOON,ioos:station:TCOON:072:1,2014-09-08T20:30:00Z,27.8392,-97.4440,0.0,30.3,2 
TCOON,ioos:station:TCOON:072:1,2014-09-08T21:30:00Z,27.8392,-97.4440,0.0,30.5,2 
TCOON,ioos:station:TCOON:072:1,2014-09-08T23:00:00Z,27.8392,-97.4440,0.0,30.5,2 
TCOON,ioos:station:TCOON:072:1,2014-09-08T23:30:00Z,27.8392,-97.4440,0.0,30.6,2 
TCOON,ioos:station:TCOON:072:1,2014-09-09T00:30:00Z,27.8392,-97.4440,0.0,30.5,2 
TCOON,ioos:station:TCOON:072:1,2014-09-09T01:30:00Z,27.8392,-97.4440,0.0,30.2,2 
TCOON,ioos:station:TCOON:072:1,2014-09-09T02:30:00Z,27.8392,-97.4440,0.0,30.0,2 
TCOON,ioos:station:TCOON:072:1,2014-09-09T04:00:00Z,27.8392,-97.4440,0.0,30.0,2 
TCOON,ioos:station:TCOON:072:1,2014-09-09T04:30:00Z,27.8392,-97.4440,0.0,29.9,2 
TCOON,ioos:station:TCOON:072:1,2014-09-09T05:30:00Z,27.8392,-97.4440,0.0,29.9,2 
TCOON,ioos:station:TCOON:072:1,2014-09-09T07:00:00Z,27.8392,-97.4440,0.0,29.9,2 
TCOON,ioos:station:TCOON:072:1,2014-09-09T07:30:00Z,27.8392,-97.4440,0.0,29.8,2 
TCOON,ioos:station:TCOON:072:1,2014-09-09T08:30:00Z,27.8392,-97.4440,0.0,29.7,2 
TCOON,ioos:station:TCOON:072:1,2014-09-09T09:30:00Z,27.8392,-97.4440,0.0,29.6,2 
TCOON,ioos:station:TCOON:072:1,2014-09-09T10:30:00Z,27.8392,-97.4440,0.0,29.5,2 
TCOON,ioos:station:TCOON:072:1,2014-09-09T11:30:00Z,27.8392,-97.4440,0.0,29.5,2 
TCOON,ioos:station:TCOON:072:1,2014-09-09T12:30:00Z,27.8392,-97.4440,0.0,29.3,2 
TCOON,ioos:station:TCOON:072:1,2014-09-09T13:30:00Z,27.8392,-97.4440,0.0,29.2,2 
TCOON,ioos:station:TCOON:072:1,2014-09-09T14:30:00Z,27.8392,-97.4440,0.0,29.3,2 
TCOON,ioos:station:TCOON:072:1,2014-09-09T15:30:00Z,27.8392,-97.4440,0.0,29.4,2 
TCOON,ioos:station:TCOON:072:1,2014-09-09T16:30:00Z,27.8392,-97.4440,0.0,29.8,2 
TCOON,ioos:station:TCOON:072:1,2014-09-09T17:30:00Z,27.8392,-97.4440,0.0,29.9,2 
TCOON,ioos:station:TCOON:072:1,2014-09-09T18:30:00Z,27.8392,-97.4440,0.0,30.1,2 
TCOON,ioos:station:TCOON:072:1,2014-09-10T02:00:00Z,27.8392,-97.4440,0.0,30.1,2 
TCOON,ioos:station:TCOON:072:1,2014-09-10T02:30:00Z,27.8392,-97.4440,0.0,30.0,2 
TCOON,ioos:station:TCOON:072:1,2014-09-10T03:30:00Z,27.8392,-97.4440,0.0,29.9,2 
TCOON,ioos:station:TCOON:072:1,2014-09-10T04:30:00Z,27.8392,-97.4440,0.0,29.8,2 
TCOON,ioos:station:TCOON:072:1,2014-09-10T05:30:00Z,27.8392,-97.4440,0.0,29.8,2 
TCOON,ioos:station:TCOON:072:1,2014-09-10T07:00:00Z,27.8392,-97.4440,0.0,29.7,2 
TCOON,ioos:station:TCOON:072:1,2014-09-10T07:30:00Z,27.8392,-97.4440,0.0,29.6,2 
TCOON,ioos:station:TCOON:072:1,2014-09-10T08:30:00Z,27.8392,-97.4440,0.0,29.5,2 
TCOON,ioos:station:TCOON:072:1,2014-09-10T12:30:00Z,27.8392,-97.4440,0.0,29.3,2 
TCOON,ioos:station:TCOON:072:1,2014-09-10T13:30:00Z,27.8392,-97.4440,0.0,29.1,2 
TCOON,ioos:station:TCOON:072:1,2014-09-10T14:30:00Z,27.8392,-97.4440,0.0,29.1,2 
TCOON,ioos:station:TCOON:072:1,2014-09-10T15:30:00Z,27.8392,-97.4440,0.0,29.2,2 
TCOON,ioos:station:TCOON:072:1,2014-09-10T17:30:00Z,27.8392,-97.4440,0.0,29.8,2 
TCOON,ioos:station:TCOON:072:1,2014-09-10T18:30:00Z,27.8392,-97.4440,0.0,30.0,2 
TCOON,ioos:station:TCOON:072:1,2014-09-10T19:30:00Z,27.8392,-97.4440,0.0,30.4,2 
TCOON,ioos:station:TCOON:072:1,2014-09-10T21:30:00Z,27.8392,-97.4440,0.0,30.6,2 
TCOON,ioos:station:TCOON:072:1,2014-09-10T22:30:00Z,27.8392,-97.4440,0.0,30.8,2 
TCOON,ioos:station:TCOON:072:1,2014-09-11T00:00:00Z,27.8392,-97.4440,0.0,30.7,2 
TCOON,ioos:station:TCOON:072:1,2014-09-11T00:30:00Z,27.8392,-97.4440,0.0,30.5,2 
TCOON,ioos:station:TCOON:072:1,2014-09-11T01:30:00Z,27.8392,-97.4440,0.0,30.4,2 
TCOON,ioos:station:TCOON:072:1,2014-09-11T02:30:00Z,27.8392,-97.4440,0.0,30.3,2 
TCOON,ioos:station:TCOON:072:1,2014-09-11T03:30:00Z,27.8392,-97.4440,0.0,30.2,2 
TCOON,ioos:station:TCOON:072:1,2014-09-11T05:00:00Z,27.8392,-97.4440,0.0,30.0,2 
TCOON,ioos:station:TCOON:072:1,2014-09-11T05:30:00Z,27.8392,-97.4440,0.0,29.9,2 
TCOON,ioos:station:TCOON:072:1,2014-09-11T07:30:00Z,27.8392,-97.4440,0.0,29.6,2 
TCOON,ioos:station:TCOON:072:1,2014-09-11T08:30:00Z,27.8392,-97.4440,0.0,29.5,2 
TCOON,ioos:station:TCOON:072:1,2014-09-11T09:30:00Z,27.8392,-97.4440,0.0,29.5,2 
TCOON,ioos:station:TCOON:072:1,2014-09-11T10:30:00Z,27.8392,-97.4440,0.0,29.4,2 
TCOON,ioos:station:TCOON:072:1,2014-09-12T12:00:00Z,27.8392,-97.4440,0.0,29.5,2 
TCOON,ioos:station:TCOON:072:1,2014-09-12T12:30:00Z,27.8392,-97.4440,0.0,29.4,2 
TCOON,ioos:station:TCOON:072:1,2014-09-15T15:30:00Z,27.8392,-97.4440,0.0,25.7,2 
TCOON,ioos:station:TCOON:072:1,2014-09-15T16:30:00Z,27.8392,-97.4440,0.0,25.8,2 
TCOON,ioos:station:TCOON:072:1,2014-09-15T17:30:00Z,27.8392,-97.4440,0.0,26.3,2 
TCOON,ioos:station:TCOON:072:1,2014-09-15T18:30:00Z,27.8392,-97.4440,0.0,26.7,2 
TCOON,ioos:station:TCOON:072:1,2014-09-15T19:30:00Z,27.8392,-97.4440,0.0,27.3,2 
TCOON,ioos:station:TCOON:072:1,2014-09-15T21:00:00Z,27.8392,-97.4440,0.0,27.3,2 
TCOON,ioos:station:TCOON:072:1,2014-09-15T21:30:00Z,27.8392,-97.4440,0.0,27.2,2 
TCOON,ioos:station:TCOON:072:1,2014-09-15T22:30:00Z,27.8392,-97.4440,0.0,26.8,2 
TCOON,ioos:station:TCOON:072:1,2014-09-15T23:30:00Z,27.8392,-97.4440,0.0,27.4,2 
TCOON,ioos:station:TCOON:072:1,2014-09-16T00:30:00Z,27.8392,-97.4440,0.0,28.6,2 
TCOON,ioos:station:TCOON:072:1,2014-09-16T01:30:00Z,27.8392,-97.4440,0.0,28.3,2 
TCOON,ioos:station:TCOON:072:1,2014-09-16T02:30:00Z,27.8392,-97.4440,0.0,28.4,2 
TCOON,ioos:station:TCOON:072:1,2014-09-16T04:00:00Z,27.8392,-97.4440,0.0,28.3,2 
TCOON,ioos:station:TCOON:072:1,2014-09-16T04:30:00Z,27.8392,-97.4440,0.0,28.2,2 
TCOON,ioos:station:TCOON:072:1,2014-09-16T05:30:00Z,27.8392,-97.4440,0.0,28.0,2 
TCOON,ioos:station:TCOON:072:1,2014-09-16T07:00:00Z,27.8392,-97.4440,0.0,27.8,2 
TCOON,ioos:station:TCOON:072:1,2014-09-16T07:30:00Z,27.8392,-97.4440,0.0,27.8,2 
TCOON,ioos:station:TCOON:072:1,2014-09-16T08:30:00Z,27.8392,-97.4440,0.0,27.7,2 
TCOON,ioos:station:TCOON:072:1,2014-09-16T09:30:00Z,27.8392,-97.4440,0.0,27.7,2 
TCOON,ioos:station:TCOON:072:1,2014-09-16T10:30:00Z,27.8392,-97.4440,0.0,27.7,2 
TCOON,ioos:station:TCOON:072:1,2014-09-16T11:30:00Z,27.8392,-97.4440,0.0,27.8,2 
TCOON,ioos:station:TCOON:072:1,2014-09-16T13:00:00Z,27.8392,-97.4440,0.0,27.9,2 
TCOON,ioos:station:TCOON:072:1,2014-09-16T14:00:00Z,27.8392,-97.4440,0.0,27.9,2 
TCOON,ioos:station:TCOON:072:1,2014-09-16T14:30:00Z,27.8392,-97.4440,0.0,27.9,2 
TCOON,ioos:station:TCOON:072:1,2014-09-16T16:00:00Z,27.8392,-97.4440,0.0,27.8,2 
TCOON,ioos:station:TCOON:072:1,2014-09-16T16:30:00Z,27.8392,-97.4440,0.0,27.9,2 
TCOON,ioos:station:TCOON:072:1,2014-09-16T17:30:00Z,27.8392,-97.4440,0.0,28.0,2 
TCOON,ioos:station:TCOON:072:1,2014-09-16T18:30:00Z,27.8392,-97.4440,0.0,28.2,2 
TCOON,ioos:station:TCOON:072:1,2014-09-16T19:30:00Z,27.8392,-97.4440,0.0,28.6,2 
TCOON,ioos:station:TCOON:072:1,2014-09-16T20:30:00Z,27.8392,-97.4440,0.0,28.7,2 
TCOON,ioos:station:TCOON:072:1,2014-09-16T21:30:00Z,27.8392,-97.4440,0.0,29.1,2 
TCOON,ioos:station:TCOON:072:1,2014-09-16T22:30:00Z,27.8392,-97.4440,0.0,29.1,2 
TCOON,ioos:station:TCOON:072:1,2014-09-16T23:30:00Z,27.8392,-97.4440,0.0,29.0,2 
TCOON,ioos:station:TCOON:072:1,2014-09-17T00:30:00Z,27.8392,-97.4440,0.0,29.0,2 
TCOON,ioos:station:TCOON:072:1,2014-09-17T01:30:00Z,27.8392,-97.4440,0.0,28.7,2 
TCOON,ioos:station:TCOON:072:1,2014-09-17T02:30:00Z,27.8392,-97.4440,0.0,28.5,2 
TCOON,ioos:station:TCOON:072:1,2014-09-17T03:30:00Z,27.8392,-97.4440,0.0,28.3,2 
TCOON,ioos:station:TCOON:072:1,2014-09-17T04:30:00Z,27.8392,-97.4440,0.0,28.2,2 
TCOON,ioos:station:TCOON:072:1,2014-09-17T05:30:00Z,27.8392,-97.4440,0.0,28.1,2 
TCOON,ioos:station:TCOON:072:1,2014-09-17T06:30:00Z,27.8392,-97.4440,0.0,28.1,2 
TCOON,ioos:station:TCOON:072:1,2014-09-17T07:30:00Z,27.8392,-97.4440,0.0,28.1,2 
TCOON,ioos:station:TCOON:072:1,2014-09-17T08:30:00Z,27.8392,-97.4440,0.0,28.0,2 
TCOON,ioos:station:TCOON:072:1,2014-09-17T09:30:00Z,27.8392,-97.4440,0.0,28.0,2 
TCOON,ioos:station:TCOON:072:1,2014-09-17T10:30:00Z,27.8392,-97.4440,0.0,27.9,2 
TCOON,ioos:station:TCOON:072:1,2014-09-17T11:30:00Z,27.8392,-97.4440,0.0,27.9,2 
TCOON,ioos:station:TCOON:072:1,2014-09-17T12:30:00Z,27.8392,-97.4440,0.0,28.0,2 
TCOON,ioos:station:TCOON:072:1,2014-09-17T13:30:00Z,27.8392,-97.4440,0.0,28.2,2 
TCOON,ioos:station:TCOON:072:1,2014-09-17T14:30:00Z,27.8392,-97.4440,0.0,28.1,2 
TCOON,ioos:station:TCOON:072:1,2014-09-17T15:30:00Z,27.8392,-97.4440,0.0,28.2,2 
TCOON,ioos:station:TCOON:072:1,2014-09-17T16:30:00Z,27.8392,-97.4440,0.0,28.4,2 
TCOON,ioos:station:TCOON:072:1,2014-09-17T17:30:00Z,27.8392,-97.4440,0.0,28.6,2 
TCOON,ioos:station:TCOON:072:1,2014-09-17T18:30:00Z,27.8392,-97.4440,0.0,28.9,2 
TCOON,ioos:station:TCOON:072:1,2014-09-17T19:30:00Z,27.8392,-97.4440,0.0,29.1,2 
TCOON,ioos:station:TCOON:072:1,2014-09-17T20:30:00Z,27.8392,-97.4440,0.0,29.2,2 
TCOON,ioos:station:TCOON:072:1,2014-09-17T21:30:00Z,27.8392,-97.4440,0.0,29.3,2 
TCOON,ioos:station:TCOON:072:1,2014-09-17T22:30:00Z,27.8392,-97.4440,0.0,29.2,2 
TCOON,ioos:station:TCOON:072:1,2014-09-17T23:30:00Z,27.8392,-97.4440,0.0,29.3,2 
TCOON,ioos:station:TCOON:072:1,2014-09-18T00:30:00Z,27.8392,-97.4440,0.0,29.1,2 
TCOON,ioos:station:TCOON:072:1,2014-09-18T01:30:00Z,27.8392,-97.4440,0.0,29.0,2 
TCOON,ioos:station:TCOON:072:1,2014-09-18T02:30:00Z,27.8392,-97.4440,0.0,28.9,2 
TCOON,ioos:station:TCOON:072:1,2014-09-18T03:30:00Z,27.8392,-97.4440,0.0,28.9,2 
TCOON,ioos:station:TCOON:072:1,2014-09-18T04:30:00Z,27.8392,-97.4440,0.0,28.8,2 